Date,TemperatureHighF,TemperatureAvgF,TemperatureLowF,DewpointHighF,DewpointAvgF,DewpointLowF,HumidityHigh,HumidityAvg,HumidityLow,PressureMaxIn,PressureMinIn,WindSpeedMaxMPH,WindSpeedAvgMPH,GustSpeedMaxMPH,PrecipitationSumIn
2013-2-1,-1.0,-7.9,-18.0,-7.0,-18.4,-26.0,74,60,42,0.00,40.00,11,5,18,0.00
2013-2-2,15.0,2.3,-12.0,1.0,-6.2,-18.0,80,68,36,0.00,40.00,8,4,12,0.01
2013-2-3,15.0,8.6,2.0,1.0,-1.4,-5.0,79,64,47,0.00,40.00,11,6,17,0.01
2013-2-4,12.0,5.5,-8.0,6.0,-6.4,-15.0,82,58,43,0.00,40.00,11,5,17,0.00
2013-2-5,23.0,16.1,-3.0,20.0,8.7,-8.0,88,73,50,0.00,40.00,13,8,21,0.00
2013-2-6,21.0,12.1,-3.0,18.0,7.9,-8.0,93,83,78,0.00,40.00,9,5,14,0.00
2013-2-7,28.0,23.4,19.0,21.0,19.3,17.0,94,84,67,0.00,40.00,9,7,19,0.00
2013-2-8,26.0,15.0,-5.0,17.0,7.2,-10.0,92,72,57,0.00,40.00,8,4,11,0.04
2013-2-9,29.0,25.3,12.0,29.0,22.1,6.0,98,87,75,0.00,40.00,14,8,20,0.01
2013-2-10,30.0,27.3,25.0,30.0,26.5,23.0,100,96,91,0.00,40.00,14,9,24,0.00
2013-2-11,30.0,24.5,16.0,30.0,18.8,10.0,100,80,65,0.00,40.00,18,13,27,0.00
2013-2-12,32.0,17.9,-1.0,19.0,11.2,-5.0,89,76,57,0.00,40.00,10,5,16,0.12
2013-2-13,37.0,28.1,20.0,31.0,22.2,17.0,100,79,59,0.00,40.00,8,5,11,0.02
2013-2-14,30.0,23.7,13.0,30.0,11.7,-3.0,100,64,28,0.00,40.00,15,8,22,0.13
2013-2-15,17.0,9.8,2.0,0.0,-2.2,-4.0,75,59,44,0.00,40.00,13,8,18,0.01
2013-2-16,22.0,8.6,-10.0,2.0,-2.8,-16.0,78,61,40,0.00,40.00,5,3,7,0.00
2013-2-17,30.0,15.5,-11.0,16.0,6.1,-18.0,82,67,52,0.00,40.00,12,6,22,0.00
2013-2-18,30.0,21.3,8.0,24.0,14.5,-1.0,84,75,67,0.00,40.00,20,10,31,0.00
2013-2-19,8.0,3.3,-2.0,-1.0,-8.5,-13.0,68,57,47,0.00,40.00,20,17,34,0.00
2013-2-20,21.0,7.7,-6.0,-1.0,-7.3,-13.0,72,51,37,0.00,40.00,10,4,16,0.00
2013-2-21,24.0,10.9,-9.0,16.0,1.1,-15.0,83,65,49,0.00,40.00,9,5,15,0.00
2013-2-22,28.0,22.7,19.0,22.0,19.0,16.0,93,85,73,0.00,40.00,9,5,16,0.09
2013-2-23,36.0,23.6,11.0,23.0,17.6,8.0,94,79,57,0.00,40.00,7,4,12,0.01
2013-2-24,39.0,18.8,4.0,23.0,11.1,-1.0,87,73,53,0.00,40.00,7,2,12,0.01
2013-2-25,36.0,17.4,2.0,21.0,10.4,-2.0,87,75,54,0.00,40.00,6,2,11,0.00
2013-2-26,40.0,20.5,3.0,25.0,13.5,-2.0,90,75,53,0.00,40.00,11,5,20,0.00
2013-2-27,43.0,31.5,25.0,25.0,22.1,20.0,88,69,44,0.00,40.00,12,7,19,0.00
2013-2-28,31.0,27.7,21.0,21.0,16.8,12.0,72,63,54,0.00,40.00,9,6,18,0.00